Weather past 2 weeks in Port-aux-Francais, French Southern Territories

Now
51 °F

Cool.


Feels Like: 48 °F
Forecast: 43 / 49 °F
Wind: 10 mph from North

Location: Port-Aux-Francais Iles Kerguelen

Current Time: May 5, 2015 at 3:11:02 AM

Latest Report: May 5, 2015 at 1:00 AM


Visibility: N/A

Pressure: 29.47 "Hg

Humidity: 85%

Dew point: 47 °F

Location of Port-aux-FrancaisLocation

Historic Weather in Port-aux-Francais — Graph

°F

Port-aux-Francais temperature yesterday

Maximum temperature yesterday: 53 °F (at 11:00 PM)
Minimum temperature yesterday: 36 °F (at 3:00 AM)
Average temperature yesterday: 42 °F

Past Weeks' High & Low Weather Summary

 TemperatureHumidityPressure
High55 °F (Apr 29, 3:00 PM)93% (Apr 22, 6:00 AM)30.30 "Hg (Apr 22, 6:00 AM)
Low31 °F (Apr 27, 12:00 AM)49% (Apr 24, 2:00 PM)29.32 "Hg (Apr 25, 8:00 AM)
Average42 °F76%29.86 "Hg
* Reported Apr 20 1:00 AM — May 5 1:00 AM, Port-aux-Francais, Weather by CustomWeather, © 2015

Note: Actual official high and low records may vary slightly from our data, if they occured in-between our weather recording intervals... More about our weather records

Advertising

Port-aux-Francais weather history for previous 24 hours

 ConditionsComfort  
Time TempWeatherWind HumidityBarometerVisibility
1:00 AM
Tue, May 5
51 °FCool.10 mph85%29.47 "HgN/A
12:00 AM53 °FCool.20 mph81%29.47 "HgN/A
11:00 PM
Mon, May 4
53 °FCool.16 mph87%29.50 "HgN/A
10:00 PM51 °FCool.22 mph90%29.53 "HgN/A
9:00 PM49 °FCool.26 mph89%29.54 "HgN/A
8:00 PM47 °FCool.18 mph92%29.60 "HgN/A
7:00 PM47 °FCool.14 mph92%29.65 "HgN/A
6:00 PM45 °FCool.9 mph92%29.67 "HgN/A
5:00 PM44 °FQuite cool.5 mph92%29.74 "HgN/A
4:00 PM43 °FQuite cool.22 mph91%29.76 "HgN/A
3:00 PM42 °FQuite cool.31 mph91%29.80 "HgN/A
2:00 PM41 °FQuite cool.26 mph92%29.85 "HgN/A
1:00 PM41 °FQuite cool.23 mph89%29.95 "HgN/A
12:00 PM41 °FQuite cool.22 mph88%30.01 "HgN/A
11:00 AM40 °FQuite cool.17 mph86%30.06 "HgN/A
10:00 AM40 °FChilly.10 mph85%30.09 "HgN/A
9:00 AM39 °FChilly.16 mph88%30.12 "HgN/A
7:00 AM38 °FChilly.15 mph86%30.13 "HgN/A
6:00 AM37 °FChilly.16 mph85%30.14 "HgN/A
5:00 AM36 °FChilly.9 mph77%30.15 "HgN/A
4:00 AM38 °FChilly.3 mph70%30.15 "HgN/A
3:00 AM36 °FChilly.12 mph75%30.16 "HgN/A
Weather by CustomWeather, © 2015

See weather overviewHow to use our weather pages